Regional Weather Roundup
Issued by NWS

Home | Current Version | Previous Version | Graphics & Text | Print | Product List | Glossary On
Versions: 1 2 3 4 5 6 7 8 9 10 11 12 13 14 15 16 17 18 19 20 21 22 23 24 25 26 27 28 29 30 31 32 33 34 35 36 37 38 39 40 41 42 43 44 45 46 47 48 49 50
146
ASUS43 KBIS 272202
RWRND

NORTH DAKOTA REGIONAL WEATHER ROUNDUP
NATIONAL WEATHER SERVICE BISMARCK ND
400 PM CST MON FEB 27 2017

NOTE: "FAIR" INDICATES FEW OR NO CLOUDS BELOW 12,000 FEET WITH NO
SIGNIFICANT WEATHER AND/OR OBSTRUCTIONS TO VISIBILITY.


NDZ001>003-009>011-017-272300-
NORTHWEST NORTH DAKOTA

CITY           SKY/WX    TMP DP  RH WIND       PRES   REMARKS
WILLISTON      CLOUDY    16   7  67 NE8       29.80F WCI   5
MINOT          LGT SNOW  14   7  73 N8        29.84R WCI   3
MINOT AFB      FLURRIES  12   7  79 N9        29.83S WCI   0
$$

NDZ018>021-031>035-040>046-272300-
SOUTHWEST NORTH DAKOTA

CITY           SKY/WX    TMP DP  RH WIND       PRES   REMARKS
BISMARCK       CLOUDY    22  16  78 NE16      29.80R WCI   8
DICKINSON      LGT SNOW  16  11  80 NE14      29.71R WCI   2
GARRISON         N/A     15   9  76 NE8       29.80S WCI   4
HETTINGER ARPT PTSUNNY   28  18  66 NE7       29.69R
$$

NDZ004>008-012>016-024-026-027-054-272300-
NORTHEAST NORTH DAKOTA

CITY           SKY/WX    TMP DP  RH WIND       PRES   REMARKS
GRAND FORKS    CLOUDY    26  15  63 NE14      29.87R WCI  14
GRND FRKS AFB  PTSUNNY   24  19  80 NE14      29.87S WCI  12
DEVILS LAKE    LGT SNOW  16  12  84 N12       29.85R FOG     WCI   3
$$

NDZ022-023-025-028>030-036>039-047>053-272300-
SOUTHEAST NORTH DAKOTA

CITY           SKY/WX    TMP DP  RH WIND       PRES   REMARKS
FARGO          MOSUNNY   33  24  69 NE10      29.80F
JAMESTOWN      CLOUDY    27  20  75 NE12      29.78R WCI  17
$$





USA.gov is the U.S. government's official web portal to all federal, state and local government web resources and services.